Date,TemperatureHighF,TemperatureAvgF,TemperatureLowF,DewpointHighF,DewpointAvgF,DewpointLowF,HumidityHigh,HumidityAvg,HumidityLow,PressureMaxIn,PressureMinIn,WindSpeedMaxMPH,WindSpeedAvgMPH,GustSpeedMaxMPH,PrecipitationSumIn
2013-5-10,-200,0,200,-100,-100,-100,89,76,64,0.00,40.00,3,2,6,0.00
2013-5-11,-200,0,200,-100,-100,-100,53,53,53,0.00,40.00,3,3,7,0.00
2013-5-13,55,48,32,21,18,15,62,31,24,0.00,40.00,5,3,12,0.08
2013-5-14,49,39,25,27,22,17,92,55,37,0.00,40.00,5,3,10,0.01
2013-5-15,51,42,31,34,26,21,83,58,31,0.00,40.00,7,4,23,0.00
2013-5-16,42,37,36,38,20,-100,98,79,48,0.00,40.00,4,3,15,0.01
2013-5-17,38,36,31,37,34,-100,100,99,96,0.00,40.00,3,1,6,0.50
2013-5-18,41,33,26,31,27,22,100,79,50,0.00,40.00,3,2,9,0.74
2013-5-19,49,37,22,29,19,15,98,53,29,0.00,40.00,5,2,13,0.05
2013-5-20,55,42,28,24,21,16,85,46,28,0.00,40.00,5,4,11,0.00
2013-5-21,54,43,27,32,27,21,90,56,35,0.00,40.00,6,4,11,0.00
2013-5-22,58,46,33,39,32,28,84,60,36,0.00,40.00,6,3,12,0.00
2013-5-23,56,48,38,47,41,37,100,78,52,0.00,40.00,4,2,9,0.02
2013-5-24,69,53,35,43,38,34,98,62,32,0.00,40.00,6,3,12,0.01
2013-5-25,71,56,37,39,32,25,81,44,20,0.00,40.00,7,4,15,0.00
2013-5-26,63,51,31,40,34,24,87,54,33,0.00,40.00,7,3,15,0.00
2013-5-27,75,60,40,46,41,35,93,53,29,0.00,40.00,5,3,11,0.00
2013-5-28,79,60,35,46,41,34,98,56,28,0.00,40.00,5,3,11,0.00
2013-5-29,81,66,45,46,41,36,84,45,25,0.00,40.00,5,3,14,0.00
2013-5-30,71,59,41,46,41,38,91,57,31,0.00,40.00,5,3,11,0.00
2013-5-31,62,52,38,47,43,37,99,75,55,0.00,40.00,6,3,11,0.00